Location: Newark
(39.6889°N, 28.1522°E)
Time: 15:01:16
(UTC+00:00)

OTV 5 (USA 277) - Visible Passes

Search period start: 19 October 2019 00:00
Search period end: 29 October 2019 00:00
Orbit: 310 x 324 km, 54.5° (Epoch: 17 October)

Date Brightness Start Highest point End Pass type
(mag) Time Alt. Az. Time Alt. Az. Time Alt. Az.
19 Oct ? 03:19:31 15° NW 03:21:38 55° NE 03:24:19 10° ESE visible
20 Oct ? 02:03:12 11° ENE 02:03:12 11° ENE 02:03:25 10° ENE visible
20 Oct ? 03:34:07 15° WNW 03:36:09 43° SW 03:38:46 10° SSE visible
21 Oct ? 02:17:56 18° E 02:17:56 18° E 02:18:56 10° ESE visible
21 Oct ? 03:48:52 10° W 03:50:31 15° SW 03:52:08 10° SSW visible
22 Oct ? 02:32:49 19° SE 02:32:49 19° SE 02:33:44 10° SE visible
26 Oct ? 16:37:49 10° S 16:38:20 13° S 16:38:20 13° S visible
27 Oct ? 16:51:37 10° SW 16:53:07 29° SSW 16:53:07 29° SSW visible
28 Oct ? 17:06:16 10° WSW 17:07:46 25° W 17:07:46 25° W visible
